This is the latest recevied weather packets stored in our database for station/object DJ2RF. If no packets are shown the sender has not sent any weather packets the latest 10 day(s).
| Time | Temp. | Humidity | Pressure | Rain* | Wind** | Luminosity | Snow |
|---|---|---|---|---|---|---|---|
| 1778274115 | 11.11° C | 74% | 1018.9 hPa | 0 mm | - | - | - |
| 1778273606 | 11.11° C | 74% | 1018.8 hPa | 0 mm | - | - | - |
| 1778273098 | 11.11° C | 73% | 1018.9 hPa | 0 mm | - | - | - |
| 1778272582 | 11.11° C | 74% | 1018.8 hPa | 0 mm | - | - | - |
| 1778272102 | 11.67° C | 72% | 1018.7 hPa | 0 mm | - | - | - |
| 1778271547 | 11.67° C | 71% | 1018.6 hPa | 0 mm | - | - | - |
| 1778271061 | 11.67° C | 71% | 1018.5 hPa | 0 mm | - | - | - |
| 1778270527 | 11.67° C | 71% | 1018.5 hPa | 0 mm | - | - | - |
| 1778270030 | 12.22° C | 70% | 1018.6 hPa | 0 mm | - | - | - |
| 1778269497 | 12.78° C | 69% | 1018.3 hPa | 0 mm | - | - | - |
| 1778269010 | 12.78° C | 68% | 1018.3 hPa | 0 mm | - | - | - |
| 1778268472 | 12.78° C | 68% | 1018.3 hPa | 0 mm | - | - | - |
| 1778267993 | 13.33° C | 68% | 1018.1 hPa | 0 mm | - | - | - |
| 1778267492 | 13.33° C | 67% | 1018.1 hPa | 0 mm | - | - | - |
| 1778266992 | 13.33° C | 66% | 1018 hPa | 0 mm | - | - | - |
| 1778266424 | 13.89° C | 65% | 1017.8 hPa | 0 mm | - | - | - |
| 1778265942 | 14.44° C | 65% | 1017.8 hPa | 0 mm | - | - | - |
| 1778265352 | 15° C | 63% | 1017.8 hPa | 0 mm | - | - | - |
| 1778264836 | 15° C | 61% | 1017.6 hPa | 0 mm | - | - | - |
| 1778264276 | 15.56° C | 60% | 1017.5 hPa | 0 mm | - | - | - |
| 1778263787 | 16.11° C | 60% | 1017.4 hPa | 0 mm | - | - | - |
| 1778263248 | 16.11° C | 59% | 1017.4 hPa | 0 mm | - | - | - |
| 1778262769 | 16.11° C | 58% | 1017.3 hPa | 0 mm | - | - | - |
| 1778262237 | 16.67° C | 58% | 1017.2 hPa | 0 mm | - | - | - |
| 1778261655 | 16.67° C | 57% | 1017.1 hPa | 0 mm | - | - | - |
* Rain latest hour (hover to see other rain measurements)
** Current wind speed in m/s (hover to see current wind gust speed)